Home > Weather > New York > Past weeks

Flag for U.S.A. Weather for the Past 2 Weeks in New York, New York, U.S.A.

Now
15 °F

Sunny.


Feels Like: 15 °F
Forecast: 4 / 17 °F
Wind: No wind

Location: New York City - Central Park

Current Time: Feb 14, 2016 at 4:18:22 PM

Latest Report: Feb 14, 2016 at 3:51 PM


Visibility: 10 mi

Pressure: 30.47 "Hg

Humidity: 23%

Dew point: -16 °F

Location of New YorkLocation

Historic Weather in New York — Graph

°F

New York Temperature Yesterday

Maximum temperature yesterday: 22 °F (at 12:51 AM)
Minimum temperature yesterday: 6 °F (at 8:51 PM)
Average temperature yesterday: 16 °F

High & Low Weather Summary for the Past Weeks

 TemperatureHumidityPressure
High59 °F (Feb 1, 12:51 PM)93% (Feb 3, 5:51 PM)30.53 "Hg (Feb 3, 5:51 PM)
Low-1 °F (Feb 14, 7:51 AM)24% (Feb 14, 1:51 PM)29.56 "Hg (Feb 9, 2:51 PM)
Average35 °F54%30.00 "Hg
* Reported Jan 30 2:51 PM — Feb 14 2:51 PM, New York, Weather by CustomWeather, © 2016

Note: Actual official high and low records may vary slightly from our data, if they occured in-between our weather recording intervals... More about our weather records

Advertising

New York Weather History for the Previous 24 Hours

 ConditionsComfort  
Time TempWeatherWind HumidityBarometerVisibility
2:51 PM
Sun, Feb 14
14 °FSunny.5 mph24%30.47 "Hg10 mi
1:51 PM12 °FSunny.5 mph24%30.49 "Hg10 mi
12:51 PM11 °FSunny.7 mph28%30.50 "Hg10 mi
11:51 AM9 °FSunny.N/A29%30.51 "Hg10 mi
10:51 AM5 °FSunny.8 mph35%30.52 "Hg10 mi
9:51 AM2 °FSunny.7 mph36%30.53 "Hg10 mi
8:51 AM0 °FSunny.7 mph40%30.52 "Hg10 mi
7:51 AM-1 °FSunny.13 mph43%30.51 "Hg10 mi
6:51 AM0 °FSunny.N/A41%30.48 "Hg10 mi
5:51 AM1 °FClear.16 mph40%30.44 "Hg10 mi
4:51 AM3 °FClear.9 mph40%30.39 "Hg10 mi
3:51 AM3 °FClear.7 mph49%30.37 "Hg10 mi
2:51 AM5 °FClear.7 mph40%30.34 "Hg10 mi
1:51 AM5 °FClear.10 mph38%30.33 "Hg10 mi
12:51 AM6 °FClear.16 mph37%30.31 "Hg10 mi
11:51 PM
Sat, Feb 13
6 °FClear.8 mph37%30.29 "Hg10 mi
10:51 PM6 °FClear.10 mph38%30.28 "Hg10 mi
9:51 PM6 °FClear.15 mph37%30.31 "Hg10 mi
8:51 PM6 °FClear.16 mph35%30.31 "Hg10 mi
7:51 PM7 °FPassing clouds.9 mph35%30.29 "Hg10 mi
6:51 PM9 °FClear.16 mph30%30.27 "Hg10 mi
5:51 PM10 °FClear.17 mph29%30.22 "Hg10 mi
4:51 PM12 °FSunny.17 mph25%30.18 "Hg10 mi
Weather by CustomWeather, © 2016

See weather overviewHow to use our weather pages